• In Denmark
  • List of Countries
  • For 7 days
  • Water Temperature
  • Satellite Maps
  • Weather Map
  • Weather Widgets
  • user-avatar
    Login

    Hourly Weather Yeghegnadzor

    Today, 24 September, Monday

    Time Temperature Precipitation Wind Pressure Humidity
    00:00 +16°C° 0.1 mm 1 mps 655 mmHg 60%
    01:00 +16°C° 0 mm 1 mps 655 mmHg 63%
    02:00 +15°C° 0 mm 1 mps 655 mmHg 65%
    03:00 +15°C° 0 mm 1 mps 655 mmHg 69%
    04:00 +15°C° 0 mm 1 mps 655 mmHg 70%
    05:00 +14°C° 0 mm 1 mps 655 mmHg 71%
    06:00 +14°C° 0 mm 1 mps 655 mmHg 72%
    07:00 +16°C° 0 mm 1 mps 655 mmHg 63%
    08:00 +19°C° 0 mm 1 mps 656 mmHg 54%
    09:00 +20°C° 0 mm 2 mps 657 mmHg 46%
    10:00 +21°C° 0 mm 2 mps 657 mmHg 42%
    11:00 +23°C° 0 mm 2 mps 657 mmHg 39%
    12:00 +24°C° 0 mm 2 mps 657 mmHg 35%
    13:00 +24°C° 0 mm 2 mps 657 mmHg 34%
    14:00 +25°C° 0 mm 2 mps 657 mmHg 33%
    15:00 +25°C° 0 mm 2 mps 657 mmHg 33%
    16:00 +24°C° 0 mm 2 mps 656 mmHg 37%
    17:00 +22°C° 0 mm 1 mps 656 mmHg 41%
    18:00 +21°C° 0 mm 1 mps 656 mmHg 46%
    19:00 +20°C° 0 mm 1 mps 656 mmHg 49%
    20:00 +19°C° 0 mm 1 mps 656 mmHg 52%
    21:00 +19°C° 0 mm 1 mps 656 mmHg 56%
    22:00 +18°C° 0 mm 1 mps 656 mmHg 56%
    23:00 +18°C° 0 mm 1 mps 656 mmHg 56%

    Tomorrow, 25 September, Tuesday

    Time Temperature Precipitation Wind Pressure Humidity
    00:00 +18°C° 0 mm 1 mps 656 mmHg 56%
    01:00 +16°C° 0 mm 1 mps 655 mmHg 54%
    02:00 +16°C° 0 mm 1 mps 655 mmHg 52%
    03:00 +16°C° 0 mm 1 mps 655 mmHg 50%
    04:00 +15°C° 0 mm 1 mps 655 mmHg 50%
    05:00 +15°C° 0 mm 1 mps 654 mmHg 49%
    06:00 +15°C° 0 mm 1 mps 654 mmHg 49%
    07:00 +18°C° 0 mm 1 mps 655 mmHg 44%
    08:00 +21°C° 0 mm 1 mps 655 mmHg 39%
    09:00 +23°C° 0 mm 1 mps 656 mmHg 35%
    10:00 +24°C° 0 mm 2 mps 656 mmHg 32%
    11:00 +25°C° 0 mm 2 mps 656 mmHg 30%
    12:00 +26°C° 0 mm 2 mps 655 mmHg 27%
    13:00 +27°C° 0 mm 2 mps 655 mmHg 26%
    14:00 +27°C° 0 mm 2 mps 654 mmHg 26%
    15:00 +27°C° 0 mm 2 mps 654 mmHg 25%
    16:00 +25°C° 0 mm 1 mps 654 mmHg 29%
    17:00 +24°C° 0 mm 1 mps 653 mmHg 33%
    18:00 +22°C° 0 mm 1 mps 653 mmHg 37%
    19:00 +21°C° 0 mm 1 mps 653 mmHg 41%
    20:00 +21°C° 0 mm 1 mps 653 mmHg 45%
    21:00 +20°C° 0 mm 1 mps 653 mmHg 49%
    22:00 +20°C° 0 mm 1 mps 653 mmHg 53%
    23:00 +19°C° 0 mm 1 mps 653 mmHg 57%

    Day after tomorrow, 26 September, Wednesday

    Time Temperature Precipitation Wind Pressure Humidity
    00:00 +18°C° 0 mm 2 mps 653 mmHg 60%
    01:00 +17°C° 0 mm 2 mps 653 mmHg 62%
    02:00 +17°C° 0 mm 2 mps 653 mmHg 64%
    03:00 +17°C° 0 mm 2 mps 653 mmHg 66%
    04:00 +16°C° 0 mm 2 mps 653 mmHg 67%
    05:00 +16°C° 0 mm 2 mps 653 mmHg 68%
    06:00 +16°C° 0 mm 2 mps 653 mmHg 69%
    07:00 +18°C° 0 mm 2 mps 654 mmHg 61%
    08:00 +19°C° 0 mm 2 mps 654 mmHg 53%
    09:00 +21°C° 0 mm 2 mps 655 mmHg 44%
    10:00 +23°C° 0 mm 2 mps 655 mmHg 41%
    11:00 +24°C° 0 mm 2 mps 655 mmHg 38%
    12:00 +25°C° 0 mm 2 mps 655 mmHg 34%
    13:00 +25°C° 0.1 mm 2 mps 655 mmHg 34%
    14:00 +26°C° 0.1 mm 2 mps 654 mmHg 34%
    15:00 +26°C° 0.1 mm 2 mps 654 mmHg 35%
    16:00 +24°C° 0.1 mm 2 mps 654 mmHg 41%
    17:00 +23°C° 0.1 mm 2 mps 654 mmHg 47%
    18:00 +20°C° 0.1 mm 2 mps 654 mmHg 54%
    19:00 +20°C° 0 mm 2 mps 654 mmHg 58%
    20:00 +19°C° 0 mm 2 mps 654 mmHg 63%
    21:00 +18°C° 0 mm 3 mps 655 mmHg 68%
    22:00 +18°C° 0 mm 3 mps 655 mmHg 70%
    23:00 +18°C° 0 mm 3 mps 655 mmHg 71%

    27 September, Thursday

    Time Temperature Precipitation Wind Pressure Humidity
    00:00 +17°C° 0 mm 3 mps 655 mmHg 73%
    01:00 +17°C° 0 mm 2 mps 655 mmHg 75%
    02:00 +16°C° 0 mm 2 mps 655 mmHg 76%
    03:00 +16°C° 0 mm 2 mps 655 mmHg 78%
    04:00 +16°C° 0 mm 2 mps 655 mmHg 78%
    05:00 +15°C° 0 mm 2 mps 655 mmHg 79%
    06:00 +15°C° 0 mm 2 mps 656 mmHg 79%
    07:00 +17°C° 0 mm 2 mps 656 mmHg 71%
    08:00 +19°C° 0 mm 1 mps 657 mmHg 62%
    09:00 +21°C° 0 mm 1 mps 658 mmHg 53%
    10:00 +21°C° 0 mm 2 mps 658 mmHg 49%
    11:00 +23°C° 0 mm 2 mps 658 mmHg 45%
    12:00 +24°C° 0 mm 2 mps 658 mmHg 41%
    13:00 +25°C° 0 mm 2 mps 658 mmHg 40%
    14:00 +25°C° 0 mm 2 mps 657 mmHg 39%
    15:00 +25°C° 0 mm 2 mps 657 mmHg 39%
    16:00 +24°C° 0 mm 2 mps 657 mmHg 44%
    17:00 +22°C° 0 mm 1 mps 657 mmHg 50%
    18:00 +21°C° 0 mm 1 mps 657 mmHg 55%
    19:00 +20°C° 0 mm 1 mps 657 mmHg 60%
    20:00 +19°C° 0 mm 2 mps 657 mmHg 64%
    21:00 +18°C° 0 mm 2 mps 658 mmHg 68%
    22:00 +18°C° 0 mm 2 mps 657 mmHg 69%
    23:00 +17°C° 0 mm 2 mps 657 mmHg 69%

    28 September, Friday

    Time Temperature Precipitation Wind Pressure Humidity
    00:00 +18°C° 0 mm 1 mps 657 mmHg 69%
    01:00 +16°C° 0 mm 1 mps 657 mmHg 69%
    02:00 +16°C° 0 mm 1 mps 657 mmHg 68%
    03:00 +16°C° 0 mm 1 mps 657 mmHg 68%
    04:00 +16°C° 0 mm 1 mps 657 mmHg 68%
    05:00 +15°C° 0 mm 1 mps 657 mmHg 68%
    06:00 +15°C° 0 mm 1 mps 657 mmHg 68%
    07:00 +18°C° 0 mm 1 mps 658 mmHg 61%
    08:00 +20°C° 0 mm 1 mps 658 mmHg 53%
    09:00 +22°C° 0 mm 1 mps 659 mmHg 46%
    10:00 +23°C° 0 mm 2 mps 659 mmHg 42%
    11:00 +24°C° 0 mm 2 mps 659 mmHg 38%
    12:00 +25°C° 0 mm 2 mps 659 mmHg 34%
    13:00 +26°C° 0 mm 2 mps 658 mmHg 33%
    14:00 +26°C° 0 mm 2 mps 658 mmHg 32%
    15:00 +26°C° 0 mm 2 mps 658 mmHg 30%
    16:00 +25°C° 0 mm 2 mps 657 mmHg 35%
    17:00 +23°C° 0 mm 1 mps 657 mmHg 40%
    18:00 +21°C° 0 mm 1 mps 656 mmHg 45%
    19:00 +21°C° 0 mm 1 mps 657 mmHg 46%
    20:00 +20°C° 0 mm 1 mps 657 mmHg 48%
    21:00 +20°C° 0 mm 1 mps 657 mmHg 49%
    22:00 +19°C° 0 mm 1 mps 657 mmHg 47%
    23:00 +19°C° 0 mm 1 mps 657 mmHg 44%

    29 September, Saturday

    Time Temperature Precipitation Wind Pressure Humidity
    00:00 +19°C° 0 mm 1 mps 656 mmHg 42%
    01:00 +18°C° 0 mm 1 mps 656 mmHg 41%
    02:00 +18°C° 0 mm 1 mps 656 mmHg 40%
    03:00 +18°C° 0 mm 1 mps 656 mmHg 39%
    04:00 +16°C° 0 mm 1 mps 656 mmHg 41%
    05:00 +16°C° 0 mm 1 mps 656 mmHg 42%
    06:00 +16°C° 0 mm 1 mps 656 mmHg 44%
    07:00 +19°C° 0 mm 1 mps 656 mmHg 41%
    08:00 +21°C° 0 mm 2 mps 657 mmHg 37%
    09:00 +24°C° 0 mm 2 mps 657 mmHg 34%
    10:00 +25°C° 0 mm 2 mps 657 mmHg 31%
    11:00 +26°C° 0 mm 2 mps 657 mmHg 28%
    12:00 +27°C° 0 mm 3 mps 657 mmHg 25%
    13:00 +28°C° 0 mm 2 mps 656 mmHg 24%
    14:00 +28°C° 0 mm 2 mps 656 mmHg 23%
    15:00 +28°C° 0 mm 2 mps 655 mmHg 22%
    16:00 +27°C° 0 mm 2 mps 655 mmHg 26%
    17:00 +25°C° 0 mm 1 mps 655 mmHg 29%
    18:00 +23°C° 0 mm 1 mps 655 mmHg 33%
    19:00 +23°C° 0 mm 1 mps 655 mmHg 33%
    20:00 +23°C° 0 mm 1 mps 655 mmHg 33%
    21:00 +21°C° 0 mm 2 mps 655 mmHg 34%
    22:00 +21°C° 0 mm 2 mps 655 mmHg 35%
    23:00 +20°C° 0 mm 2 mps 655 mmHg 36%
    Show more